Weather History for KJRB - July, 2013

Change the Weather History Date:

Friday, July 12, 2013

  Actual Average (KNYC) Record (KNYC)
Temperature  
Mean Temperature 78 °F 77 °F  
Max Temperature 80 °F 84 °F 99 °F (1966)
Min Temperature 75 °F 69 °F 57 °F (1926)
Degree Days  
Heating Degree Days 0 0  
Month to date heating degree days 0  
Since 1 June heating degree days 19  
Since 1 July heating degree days 0  
Cooling Degree Days 12 12  
Month to date cooling degree days 132  
Year to date cooling degree days 413  
Since 1 June cooling degree days 344  
Growing Degree Days 28 (Base 50)    
Moisture  
Dew Point 64 °F    
Average Humidity 66    
Maximum Humidity 78    
Minimum Humidity 48    
Precipitation  
Precipitation 0.00 in 0.15 in 2.68 in (1937)
Month to date precipitation 1.61  
Year to date precipitation 25.81  
Snow  
Snow 0.00 in 0.00 in 0.00 in (2002)
Month to date snowfall 0.0  
Since 1 July snowfall 0.0  
Snow Depth -    
Sea Level Pressure  
Sea Level Pressure 29.99 in    
Wind  
Wind Speed 12 mph (NE)    
Max Wind Speed 18 mph    
Max Gust Speed 26 mph    
Visibility 10 miles    
Events      
T = Trace of Precipitation, MM = Missing Value Source: NWS Daily Summary

Daily Weather History Graph

Daily Weather History Graph

Search for Another Location

Airport or City:

Trip Planner

Search our weather history database for the weather conditions in past years. The results will help you decide how hot, cold, wet, or windy it might be!

Date:

Astronomy

Jul. 12, 2013 Rise Set
Actual Time 5:35 AM EDT 8:27 PM EDT
Civil Twilight 5:03 AM EDT 8:59 PM EDT
Nautical Twilight 4:21 AM EDT 9:40 PM EDT
Astronomical Twilight 3:34 AM EDT 10:28 PM EDT
Moon 9:51 AM EDT (7/12) 10:34 PM EDT (7/12)
Length of Visible Light 15h 56m
Length of Day
14h 51m
Waxing Crescent, 17% of the Moon is Illuminated
Jul 12
Waxing Crescent
Jul 15
First Quarter
Jul 22
Full
Jul 29
Last Quarter
Aug 6
New

Hourly Weather History & Observations

Time (EDT) Temp. Heat Index Dew Point Humidity Pressure Visibility Wind Dir Wind Speed Gust Speed Precip Events Conditions
12:15 AM 78.8 °F - 60.8 °F 54% 29.92 in 10.0 mi NE 10.4 mph - N/A   Clear
12:35 AM 80.6 °F 81.1 °F 59.0 °F 48% 29.92 in 10.0 mi NE 9.2 mph 16.1 mph N/A   Clear
12:55 AM 78.8 °F - 60.8 °F 54% 29.92 in 10.0 mi NE 9.2 mph 16.1 mph N/A   Clear
1:15 AM 78.8 °F - 62.6 °F 57% 29.93 in 10.0 mi NE 11.5 mph 17.3 mph N/A   Clear
1:35 AM 78.8 °F - 60.8 °F 54% 29.93 in 10.0 mi NE 10.4 mph 18.4 mph N/A   Clear
1:55 AM 77.0 °F - 62.6 °F 61% 29.93 in 10.0 mi NNE 6.9 mph 17.3 mph N/A   Clear
2:15 AM 77.0 °F - 62.6 °F 61% 29.93 in 10.0 mi NE 10.4 mph - N/A   Clear
2:35 AM 77.0 °F - 64.4 °F 65% 29.93 in 10.0 mi NE 12.7 mph - N/A   Partly Cloudy
2:55 AM 77.0 °F - 64.4 °F 65% 29.93 in 10.0 mi NE 8.1 mph - N/A   Scattered Clouds
3:15 AM 77.0 °F - 62.6 °F 61% 29.93 in 10.0 mi NE 11.5 mph 17.3 mph N/A   Mostly Cloudy
3:35 AM 77.0 °F - 62.6 °F 61% 29.94 in 10.0 mi NNE 9.2 mph 19.6 mph N/A   Overcast
3:55 AM 75.2 °F - 62.6 °F 65% 29.95 in 10.0 mi NNE 12.7 mph 18.4 mph N/A   Overcast
4:15 AM 75.2 °F - 62.6 °F 65% 29.95 in 10.0 mi NNE 10.4 mph - N/A   Overcast
4:35 AM 75.2 °F - 62.6 °F 65% 29.95 in 10.0 mi NE 10.4 mph 16.1 mph N/A   Overcast
4:55 AM 75.2 °F - 62.6 °F 65% 29.96 in 10.0 mi NE 11.5 mph 19.6 mph N/A   Scattered Clouds
5:15 AM 75.2 °F - 62.6 °F 65% 29.96 in 10.0 mi NE 10.4 mph 16.1 mph N/A   Mostly Cloudy
5:35 AM 75.2 °F - 62.6 °F 65% 29.96 in 10.0 mi NE 13.8 mph - N/A   Overcast
5:55 AM 75.2 °F - 62.6 °F 65% 29.97 in 10.0 mi NE 12.7 mph 17.3 mph N/A   Overcast
6:15 AM 75.2 °F - 62.6 °F 65% 29.98 in 10.0 mi NE 11.5 mph 16.1 mph N/A   Overcast
6:35 AM 75.2 °F - 62.6 °F 65% 29.98 in 10.0 mi NNE 12.7 mph 18.4 mph N/A   Mostly Cloudy
6:55 AM 75.2 °F - 62.6 °F 65% 29.99 in 10.0 mi NNE 12.7 mph 18.4 mph N/A   Mostly Cloudy
7:15 AM 75.2 °F - 62.6 °F 65% 29.99 in 10.0 mi NNE 12.7 mph - N/A   Partly Cloudy
7:35 AM 75.2 °F - 62.6 °F 65% 29.99 in 10.0 mi NNE 13.8 mph 20.7 mph N/A   Clear
7:55 AM 75.2 °F - 62.6 °F 65% 29.99 in 10.0 mi NE 12.7 mph 19.6 mph N/A   Clear
8:15 AM 75.2 °F - 64.4 °F 69% 30.00 in 10.0 mi NNE 16.1 mph 23.0 mph N/A   Clear
8:35 AM 75.2 °F - 64.4 °F 69% 30.00 in 10.0 mi NE 17.3 mph 24.2 mph N/A   Clear
8:55 AM 75.2 °F - 64.4 °F 69% 30.01 in 10.0 mi NE 17.3 mph 24.2 mph N/A   Clear
9:15 AM 75.2 °F - 64.4 °F 69% 30.01 in 10.0 mi NE 17.3 mph 21.9 mph N/A   Mostly Cloudy
9:35 AM 75.2 °F - 64.4 °F 69% 30.02 in 10.0 mi NE 15.0 mph 24.2 mph N/A   Overcast
9:55 AM 77.0 °F - 64.4 °F 65% 30.01 in 10.0 mi NNE 15.0 mph 21.9 mph N/A   Mostly Cloudy
10:15 AM 77.0 °F - 64.4 °F 65% 30.02 in 10.0 mi NE 18.4 mph 25.3 mph N/A   Mostly Cloudy
10:35 AM 77.0 °F - 64.4 °F 65% 30.02 in 10.0 mi NE 17.3 mph 24.2 mph N/A   Mostly Cloudy
10:55 AM 77.0 °F - 64.4 °F 65% 30.02 in 10.0 mi NNE 18.4 mph 24.2 mph N/A   Mostly Cloudy
11:15 AM 78.8 °F - 64.4 °F 61% 30.02 in 10.0 mi ENE 15.0 mph 21.9 mph N/A   Partly Cloudy
11:35 AM 78.8 °F - 64.4 °F 61% 30.03 in 10.0 mi NE 13.8 mph 20.7 mph N/A   Scattered Clouds
11:55 AM 77.0 °F - 64.4 °F 65% 30.03 in 9.0 mi NE 13.8 mph 24.2 mph N/A   Partly Cloudy
12:15 PM 77.0 °F - 66.2 °F 69% 30.03 in 10.0 mi NE 16.1 mph 21.9 mph N/A   Mostly Cloudy
12:35 PM 77.0 °F - 66.2 °F 69% 30.04 in 10.0 mi NNE 16.1 mph 20.7 mph N/A   Overcast
12:55 PM 77.0 °F - 66.2 °F 69% 30.03 in 10.0 mi NE 13.8 mph 20.7 mph N/A   Overcast
1:15 PM 75.2 °F - 66.2 °F 73% 30.03 in 8.0 mi NE 17.3 mph 24.2 mph N/A   Overcast
1:35 PM 75.2 °F - 66.2 °F 73% 30.04 in 9.0 mi NNE 16.1 mph 24.2 mph N/A   Overcast
1:55 PM 75.2 °F - 66.2 °F 73% 30.03 in 10.0 mi NE 16.1 mph 23.0 mph N/A   Overcast
2:15 PM 75.2 °F - 68.0 °F 78% 30.03 in 10.0 mi NE 17.3 mph - N/A   Overcast
2:35 PM 75.2 °F - 68.0 °F 78% 30.03 in 10.0 mi NNE 18.4 mph 26.5 mph N/A   Overcast
2:55 PM 75.2 °F - 68.0 °F 78% 30.03 in 10.0 mi NE 18.4 mph 26.5 mph N/A   Overcast
3:15 PM 75.2 °F - 68.0 °F 78% 30.03 in 10.0 mi NE 15.0 mph 23.0 mph N/A   Overcast
3:35 PM 75.2 °F - 68.0 °F 78% 30.03 in 10.0 mi NNE 12.7 mph 18.4 mph N/A   Overcast
3:55 PM 75.2 °F - 68.0 °F 78% 30.03 in 10.0 mi NNE 12.7 mph 23.0 mph N/A   Overcast
4:15 PM 75.2 °F - 68.0 °F 78% 30.02 in 10.0 mi NNE 13.8 mph 23.0 mph N/A   Overcast